Find STARLINK-37543

NORAD ID: 70576 Constellation: starlink operational
LEOCIRCULARRETROGRADE

实时位置

正在加载3D地球...

关于 STARLINK-37543

正在加载描述...

即将过境

Passes for default location (London). Set your location on the main map for personalized predictions.

高度历史

Loading altitude history...

两行轨道根数

1 70576C 26097S 26121.92340278 -.00321700 00000+0 -46439-3 0 1216
2 70576 97.2853 316.5883 0008193 255.4547 240.2685 16.05451374 12
Epoch: May 1, 2026 • Age: 30 hours